www.pogodaiklimat.ru

Погода и климат >> Архив погоды >> Россия >> Хабаровский край >> Богородское


ПОГОДА в Богородском

  • Прогноз погоды в Богородском
  • Монитор погоды в Богородском

АРХИВ ПОГОДЫ в Богородском

Время (UTC), дата Ветер
(напр.,м/с)
 
Видим.   Явления Облачность Т
(С)
Тd
(С)
f
(%)
Тe
(С)
Тes
(С)
Комфортность P
(гПа)
Po
(гПа)
Тmin
(С)
Tmax
(С)
R
(мм)
R24
(мм)
S
(см)
12 17.05 штиль 0 50 км {ливн. осадки} 10/6 600 м
[Sc Ac trans Ci fib]
+8.1 +7.0 93 +7 +7 1007.9 1003.7
15 17.05 Ю 2 50 км 10/5 600 м
[Sc Ac trans Ci fib]
+7.8 +6.7 93 +6 +6 1008.5 1004.3
18 17.05 ЮВ 2 50 км 4/1 600 м
[Sc Ci fib]
+5.6 +5.4 99 +3 +3 1008.8 1004.5
21 17.05 ЮВ 2 50 км 10/1 300 м
[St Ci sp]
+6.8 +6.1 95 +4 +6 1008.3 1004.1 +4.0 0.1
00 18.05 З 2 50 км 9/4 600 м
[Sc As trans Cs]
+13.6 +9.3 75 +13 +17 1005.5 1001.4
03 18.05 Ю 2 10 км слаб. ливневой дождь 10/10 600 м
[Cb cap]
+12.3 +11.0 92 +11 +11 1004.8 1000.7
06 18.05 З 2 50 км {ливн. осадки} 10/10 600 м
[Cb cap]
+11.9 +11.7 99 +11 +11 1003.5 999.4
09 18.05 С 2 50 км 10/10 600 м
[Sc]
+12.4 +13.1 100 +11 +11 1002.5 998.4 +15.0 10
12 18.05 Ю 2 50 км 10/6 600 м
[Sc Ac trans Ci]
+11.9 +11.1 95 +11 +11 1002.3 998.2
15 18.05 Ю 4 10 км слаб. ливневой дождь 10/10 600 м
[Cb cap]
+12.5 +11.2 92 +10 +10 1001.1 997.0
18 18.05 Ю 6 50 км {ливн. осадки} 6/6 600 м
[St]
+11.2 +10.0 92 +8 +8 1000.8 996.7
21 18.05 Ю 2 50 км 3/1 600 м
[St Ac trans]
+10.0 +7.3 83 +8 +10 1002.3 998.1 +10.0 2
00 19.05 Ю 4 50 км 4/4 600 м
[Cu hum]
+16.0 +4.5 46 +15 +20 1002.7 998.6
03 19.05 З 4 50 км 6/3 600 м
[Cu hum Ac trans Ci fib]
+20.1 +0.8 28 +20 +26 1002.9 998.8
06 19.05 З 4 50 км 8/5 600 м
[Cu hum Ac trans Ci fib]
+20.6 +1.8 29 +21 +23 комфорт 1003.2 999.1
09 19.05 Ю 2 50 км 8/5 600 м
[Sc As trans Ci fib]
+17.4 +9.4 59 +18 +18 1004.4 1000.3 +21.3
12 19.05 ЮЗ 2 50 км 6/5 600 м
[Sc diur, vesp Ci fib]
+15.1 +7.9 62 +15 +15 1006.7 1002.6
15 19.05 штиль 0 50 км 3/0
[Ac lent Ci fib]
+11.2 +7.9 80 +11 +11 1007.4 1003.2
18 19.05 штиль 0 50 км 4/3 600 м
[Sc Ac trans]
+8.3 +7.2 93 +7 +7 1007.0 1002.8
21 19.05 штиль 0 50 км 10/3 600 м
[Sc As trans]
+9.6 +8.6 93 +9 +10 1006.4 1002.2 +7.8
00 20.05 штиль 0 10 км слаб. дождь 10/10 600 м
[Sc]
+12.3 +10.2 87 +12 +12 1006.3 1002.2
03 20.05 штиль 0 10 км слаб. дождь 10/10 600 м
[Sc]
+13.6 +12.1 91 +13 +13 1005.0 1010.9
06 20.05 В 2 10 км слаб. дождь 10/10 600 м
[Sc]
+12.4 +10.1 86 +11 +11 1002.7 998.6
09 20.05 В 4 н/о {дождь} н/о +9.4 +6.8 84 +7 +7 1003.0 998.8 +13.7 4
12 20.05 штиль 0 10 км слаб. дождь 10/10 600 м
[Sc]
+8.0 +7.1 94 +7 +7 1001.9 997.7
15 20.05 С 2 50 км {дождь} 10/10 600 м
[Sc]
+7.6 +7.0 96 +5 +5 1000.2 996.0
18 20.05 С 2 50 км {дождь} 10/10 600 м
[Sc]
+7.3 +6.9 97 +5 +5 999.3 995.1
21 20.05 штиль 0 н/о н/о +8.6 +7.5 93 +8 +8 998.2 994.0 +7.0 2
00 21.05 Ю 6 50 км 10/8 600 м
[Sc Ac und]
+14.0 +10.2 78 +12 +12 997.5 993.4
03 21.05 Ю 6
{14}
10 км слаб. дождь 10/6 600 м
[Sc As op]
+15.3 +11.4 78 +14 +14 997.3 993.2
06 21.05 Ю 4 10 км слаб. дождь 10/6 600 м
[Sc As op]
+15.6 +11.1 75 +15 +15 996.9 992.8
09 21.05 Ю 2 10 км слаб. ливневой дождь 10/10 600 м
[Cb cap]
+14.2 +11.6 84 +14 +14 996.3 992.2 +15.9 0.7
12 21.05 ЮВ 2 10 км слаб. ливневой дождь 10/10 600 м
[Cb cap]
+13.4 +12.1 92 +13 +13 995.6 991.5
15 21.05 Ю 2 10 км слаб. ливневой дождь 10/10 600 м
[Cb cap]
+13.1 +11.8 92 +12 +12 994.3 990.2
18 21.05 Ю 4 50 км {ливн. осадки} 8/8 600 м
[Sc]
+13.3 +9.8 79 +12 +12 992.2 988.1
21 21.05 Ю 2 50 км 10/10 600 м
[Sc]
+12.1 +9.3 83 +11 +11 993.2 989.1 +12.1 3
00 22.05 С 2 20 км слаб. дождь 10/10 600 м
[Sc]
+9.0 +8.6 97 +7 +7 995.2 991.0 +8.5
03 22.05 С 4 50 км {дождь} 9/6 600 м
[Cb cap Ac trans Ci fib]
+13.2 +10.3 83 +11 +14 995.4 991.0
06 22.05 З 2 50 км {дождь} 6/3 600 м
[Cb cap Ac lent Ci sp]
+16.8 +10.4 66 +17 +22 996.0 992.0
09 22.05 Ю 2 н/о н/о +14.4 +8.7 69 +14 +15 997.3 993.2 +18.1 0.1
12 22.05 С 2 50 км 8/0
[Ac trans Ci fib]
+11.1 +10.1 94 +10 +10 998.0 993.8
15 22.05 штиль 0 50 км 8/6 600 м
[Sc Ac lent Ci fib]
+8.6 +7.5 93 +8 +8 998.4 994.2
18 22.05 штиль 0 50 км 10/8 600 м
[Sc Ac trans Ci fib]
+6.8 +6.1 95 +6 +6 998.4 994.2
21 22.05 штиль 0 50 км 10/4 600 м
[Sc Ac trans Ci fib]
+8.2 +6.9 92 +7 +8 998.8 994.6 +5.4
00 23.05 С 2 50 км 10/6 600 м
[Sc Ac As]
+8.1 +6.1 87 +6 +8 999.3 995.1
03 23.05 ЮВ 2 50 км 8/8 600 м
[Sc]
+12.1 +7.6 74 +11 +14 999.0 994.9
06 23.05 ЮВ 2 50 км 8/5 600 м
[Sc Ac trans Ci fib]
+15.5 +8.4 63 +15 +19 998.6 994.5
09 23.05 Ю 2 н/о н/о +16.2 +8.6 61 +16 +17 998.2 994.1 +16.8
12 23.05 штиль 0 4000 м ливневой дождь 10/10 600 м
[Cb cap]
+11.9 +10.4 91 +11 +11 999.7 995.6
15 23.05 штиль 0 50 км {ливн. осадки} 10/10 600 м
[Cb cap]
+11.0 +9.6 91 +10 +10 1000.9 996.7
18 23.05 штиль 0 50 км 10/10 600 м
[Cb cap]
+10.4 +9.6 95 +10 +10 1001.1 996.9
21 23.05 штиль 0 20 км 10/10 600 м
[St]
+10.2 +9.6 96 +9 +9 1001.8 997.6 +10.0 6
00 24.05 ЮЗ 2 50 км 5/3 600 м
[St Ac trans]
+12.9 +10.2 84 +12 +19 1001.8 997.7
03 24.05 Ю 2 50 км 5/3 600 м
[Cb cap Ac lent Ci sp]
+18.2 +10.8 62 +19 +29 1000.3 996.2
06 24.05 Ю 2 50 км 9/8 600 м
[Cb cap Ac trans Ci]
+21.3 +8.2 43 +22 +24 комфорт 998.8 994.9
09 24.05 Ю 2
{12}
10 км слаб. ливневой дождь 9/8 600 м
[Cb cap Ac cast Cs]
+13.6 +12.1 91 +13 +13 1000.1 996.0 +21.3 6

 

Местоположение метеостанции Богородское (Хабаровский край, Россия): широта 52.38 долгота 140.40 высота над уровнем моря 35 м.

В архиве по умолчанию представлена погода в Богородском за последнюю неделю. Архивные данные за месяц целиком и за предыдущие месяцы, начиная с января 2011 года, Вы можете получить, выбрав интересующий диапазон дат из раскрывающегося списка и нажав кнопку "Ввод!".


*Определитесь, кто Вы:
робот инопланетянин человек

Внимание! Время в таблицах - всемирное. Для получения местного времени необходимо прибавить поправку, которая равна 10 ч.

Смотрите также архив погоды в соседних городах и на ближайших метеорологических станциях:

Погода в Джаоре (Хабаровский край, Россия) (63 км)
Погода в Мариинском (Хабаровский край, Россия) (75 км)
Погода в Погибях (Сахалинская область, Россия) (84 км)
Погода в Николаевск-на-Амуре (Хабаровский край, Россия) (88 км)
Погода в Байдукове (Хабаровский край, Россия) (122 км)
Погода в Удинске (Хабаровский край, Россия) (124 км)
Погода в Циммермановка (Хабаровский край, Россия) (143 км)
Погода в Литке (Хабаровский край, Россия) (175 км)
Погода в Вале (Сахалинская область, Россия) (177 км)
Погода в Ныше (Сахалинская область, Россия) (184 км)

Пояснения к столбцам:

Ветер - указаны скорость ветра в м/с - средняя за 10 мин, порывы в срок и между сроками (в фигурных скобках) и направление, откуда дует ветер: С - северный, СВ - северо-восточный, В - восточный, ЮВ - юго-восточный, Ю - южный, ЮЗ - юго-западный, З - западный, СЗ - северо-западный.
Видимость - горизонтальная дальность видимости в метрах или километрах. При видимости от 1 до 10 км при отсутствии осадков обычно наблюдается дымка, при ухудшении видимости до 1 км и менее - туман. В сухую погоду видимость может ухудшаться дымом, пылью или мглою.
Явления - указаны атмосферные явления, наблюдавшиеся в срок или в последний час перед сроком; фигурными скобками обозначены явления, наблюдавшиеся между сроками (за 1-3 часа до срока); квадратными скобками обозначены град или гололедные отложения с указанием их диаметра в мм.
Облачность - указаны через наклонную черту общая и нижняя облачность в баллах и высота нижней границы облаков в метрах; квадратными скобками обозначены формы облаков: Ci - перистые, Cs - перисто-слоистые, Cc - перисто-кучевые, Ac - высококучевые, As - высокослоистые, Sc - слоисто-кучевые, Ns - слоисто-дождевые, Cu - кучевые, Cb - кучево-дождевые. Подробнее классификацию облаков см. в Атласе облаков (PDF).
T - Температура воздуха - температура, измеренная на высоте 2 м над землей.
Td - Температура точки росы - температура, при понижении до которой содержащийся в воздухе водяной пар достигнет насыщения.
f - Относительная влажность воздуха - влажноcть воздуха, измеренная на высоте 2 м над землей.
Te - Эффективная температура - температура, которую ощущает одетый по сезону человек в тени. Характеристика душности погоды. При расчете учитывается влияние влажности воздуха и скорости ветра на теплоощущения человека.
Tes - Эффективная температура на солнце - температура, которую ощущает человек, с поправкой на солнечный нагрев. Характеристика знойности погоды. Зависит от высоты солнца над горизонтом, облачности и скорости ветра. Ночью, в пасмурную погоду, а также при ветре 12 м/с и более поправка равна нулю.
P - Атмосферное давление - приведенное к уровню моря атмосферное давление.
Po - Атмосферное давление - измеренное на уровне метеостанции атмосферное давление.
Tmin - Минимальная температура - минимум температуры воздуха на высоте 2 м над землей.
Tmax - Максимальная температура - максимум температуры воздуха на высоте 2 м над землей.
R - Количество осадков - Количество выпавших осадков за период времени, мм. При наведении курсора мыши на число - период времени, за который выпало указанное количество осадков.
R24 - Количество осадков - Количество выпавших осадков за 24 часа, мм.
S - Снежный покров - Высота снежного покрова, см. При наведении курсора мыши на число - состояние снежного покрова и степень покрытия местности в баллах.